Sion, Switzerland

9:11 AM CEST on October 22, 2017 (GMT +0200)
Sion

Weather History for LSGS - November, 2012

Change the Weather History Date:

Friday, November 2, 2012

  Actual Average Record
Temperature  
Mean Temperature 50 °F -  
Max Temperature 57 °F - - ()
Min Temperature 44 °F - - ()
Degree Days  
Heating Degree Days 14    
Moisture  
Dew Point 39 °F    
Average Humidity 61    
Maximum Humidity 93    
Minimum Humidity 34    
Precipitation  
Precipitation 0.02 in - - ()
Sea Level Pressure  
Sea Level Pressure 29.71 in    
Wind  
Wind Speed 3 mph ()    
Max Wind Speed 9 mph    
Max Gust Speed -    
Visibility 7.0 miles    
Events Rain    
T = Trace of Precipitation, MM = Missing Value Source: Averaged Metar Reports

Daily Weather History Graph

Daily Weather History Graph

Search for Another Location

Airport or City:

Trip Planner

Search our weather history database for the weather conditions in past years. The results will help you decide how hot, cold, wet, or windy it might be!

Date:

Astronomy

Nov. 02, 2012 Rise Set
Actual Time 7:13 AM CET 5:14 PM CET
Civil Twilight 6:41 AM CET 5:45 PM CET
Nautical Twilight 6:06 AM CET 6:21 PM CET
Astronomical Twilight 5:31 AM CET 6:56 PM CET
Moon 7:40 PM CET (11/2) 10:28 AM CET (11/2)
Length of Visible Light 11h 03m
Length of Day
10h 00m
Waning Gibbous, 89% of the Moon is Illuminated
Nov 2
Waning Gibbous
Nov 7
Last Quarter
Nov 13
New
Nov 20
First Quarter
Nov 28
Full

Hourly Weather History & Observations

Time (CET) Temp. Windchill Dew Point Humidity Pressure Visibility Wind Dir Wind Speed Gust Speed Precip Events Conditions
12:00 AM 47 °F - 44 °F 86% 29.57 in - NNE 2.3 mph - -  
1:00 AM 46 °F - 44 °F 92% 29.61 in - SSW 1.2 mph - -  
2:00 AM 46 °F - 44 °F 90% 29.62 in - South 2.3 mph - -  
3:00 AM 47 °F - 44 °F 86% 29.64 in - NE 3.5 mph - -  
5:00 AM 45 °F - 41 °F 82% 29.68 in - SE 2.3 mph - -  
6:00 AM 45 °F - 41 °F 82% 29.70 in - East 1.2 mph - -  
7:00 AM 45 °F - 42 °F 85% 29.73 in 9 mi NE 5.8 mph - - Rain Light Rain
7:20 AM 44.6 °F 43.1 °F 41.0 °F 87% 29.68 in 6.2 mi Variable 3.5 mph - N/A   Mostly Cloudy
7:50 AM 44.6 °F 43.1 °F 41.0 °F 87% 29.71 in 6.2 mi SW 3.5 mph - N/A   Mostly Cloudy
8:00 AM 45 °F - 42 °F 85% 29.75 in - SW 1.2 mph - -  
8:20 AM 44.6 °F - 41.0 °F 87% 29.74 in 6.2 mi Variable 2.3 mph - N/A   Mostly Cloudy
8:50 AM 44.6 °F 43.1 °F 42.8 °F 93% 29.74 in 6.2 mi Variable 3.5 mph - N/A   Mostly Cloudy
9:00 AM 47 °F - 43 °F 80% 29.77 in - NE 2.3 mph - -  
9:20 AM 46.4 °F - 42.8 °F 87% 29.74 in 6.2 mi Variable 1.2 mph - N/A   Scattered Clouds
9:50 AM 48.2 °F - 42.8 °F 82% 29.74 in 6.2 mi Variable 2.3 mph - N/A   Scattered Clouds
10:20 AM 50.0 °F - 41.0 °F 71% 29.74 in 6.2 mi Variable 2.3 mph - N/A   Scattered Clouds
10:50 AM 53.6 °F - 41.0 °F 62% 29.74 in 6.2 mi Variable 1.2 mph - N/A   Scattered Clouds
11:00 AM 52 °F - 42 °F 58% 29.76 in - SSE 2.3 mph - -  
11:20 AM 51.8 °F - 42.8 °F 71% 29.74 in 6.2 mi East 4.6 mph - N/A   Scattered Clouds
11:50 AM 53.6 °F - 39.2 °F 58% 29.74 in 6.2 mi East 4.6 mph - N/A   Scattered Clouds
12:00 PM 54 °F - 40 °F 47% 29.73 in - East 3.5 mph - -  
12:20 PM 55.4 °F - 37.4 °F 51% 29.71 in 6.2 mi SE 4.6 mph - N/A   Scattered Clouds
12:50 PM 55.4 °F - 33.8 °F 44% 29.71 in 6.2 mi Variable 1.2 mph - N/A   Scattered Clouds
1:00 PM 55 °F - 35 °F 35% 29.70 in 16 mi South 1.2 mph - -   Partly Cloudy
1:20 PM 57.2 °F - 35.6 °F 44% 29.68 in 6.2 mi Variable 2.3 mph - N/A   Scattered Clouds
1:50 PM 57.2 °F - 33.8 °F 41% 29.68 in 6.2 mi Variable 2.3 mph - N/A   Scattered Clouds
2:00 PM 57 °F - 36 °F 34% 29.68 in - South 2.3 mph - -  
2:20 PM 57.2 °F - 33.8 °F 41% 29.68 in 6.2 mi Calm Calm - N/A   Scattered Clouds
2:50 PM 57.2 °F - 35.6 °F 44% 29.68 in 6.2 mi Variable 2.3 mph - N/A   Scattered Clouds
3:00 PM 56 °F - 38 °F 39% 29.69 in - East 1.2 mph - -  
3:20 PM 57.2 °F - 35.6 °F 44% 29.68 in 6.2 mi NE 3.5 mph - N/A   Mostly Cloudy
3:50 PM 57.2 °F - 37.4 °F 48% 29.68 in 6.2 mi ENE 5.8 mph - N/A   Mostly Cloudy
4:20 PM 57.2 °F - 33.8 °F 41% 29.68 in 6.2 mi ENE 9.2 mph - N/A   Mostly Cloudy
4:50 PM 55.4 °F - 33.8 °F 44% 29.68 in 6.2 mi ENE 5.8 mph - N/A   Mostly Cloudy
5:00 PM 54 °F - 38 °F 43% 29.70 in - East 3.5 mph - -  
5:20 PM 55.4 °F - 33.8 °F 44% 29.71 in 6.2 mi East 4.6 mph - N/A   Mostly Cloudy
5:50 PM 53.6 °F - 35.6 °F 51% 29.71 in 6.2 mi SE 3.5 mph - N/A   Mostly Cloudy
6:00 PM 52 °F - 38 °F 48% 29.74 in - WNW 2.3 mph - -  
6:20 PM 53.6 °F - 35.6 °F 51% 29.74 in 6.2 mi Variable 2.3 mph - N/A   Mostly Cloudy
6:50 PM 51.8 °F - 35.6 °F 54% 29.74 in 6.2 mi ESE 4.6 mph - N/A   Mostly Cloudy
7:00 PM 53 °F - 37 °F 42% 29.76 in 16 mi ENE 5.8 mph - -   Mostly Cloudy
7:20 PM 53.6 °F - 37.4 °F 54% 29.77 in 6.2 mi Variable 2.3 mph - N/A   Mostly Cloudy
8:00 PM 54 °F - 35 °F 36% 29.77 in - East 9.2 mph - -  
9:00 PM 53 °F - 35 °F 39% 29.80 in - East 4.6 mph - -  
11:00 PM 50 °F - 40 °F 58% 29.84 in - ESE 1.2 mph - -